Wetterdaten: Sonntag, 12.07.2015
Datum Zeit Temp. A. Feuchte A. Luftdruck Regen Wind Richtung Richtung Sonnenschein ET UV Solar Taupunkt Windchill Windben Empfang
12.07.2015 00:00 17,9 C 72 % 1015,3 hPa 0,0 l/m 0,0 km/h (0 Bft) N-NO 33 0 min 0,000 mm 0,0 UV-I 0 W/m 12,8 C 17,9 C 0,0 km/h (0 Bft) 0,00 %
12.07.2015 00:05 17,7 C 72 % 1015,4 hPa 0,0 l/m 0,4 km/h (0 Bft) W-NW 291 0 min 0,000 mm 0,0 UV-I 0 W/m 12,6 C 17,7 C 4,0 km/h (1 Bft) 0,00 %
12.07.2015 00:10 17,6 C 72 % 1015,5 hPa 0,0 l/m 0,0 km/h (0 Bft) NO 54 0 min 0,000 mm 0,0 UV-I 0 W/m 12,5 C 17,6 C 0,0 km/h (0 Bft) 0,00 %
12.07.2015 00:15 17,6 C 73 % 1015,5 hPa 0,0 l/m 0,0 km/h (0 Bft) N-NO 19 0 min 0,000 mm 0,0 UV-I 0 W/m 12,7 C 17,6 C 0,0 km/h (0 Bft) 0,00 %
12.07.2015 00:20 17,4 C 73 % 1015,4 hPa 0,0 l/m 0,0 km/h (0 Bft) N-NO 30 0 min 0,000 mm 0,0 UV-I 0 W/m 12,5 C 17,4 C 0,0 km/h (0 Bft) 0,00 %
12.07.2015 00:25 17,3 C 73 % 1015,4 hPa 0,0 l/m 0,0 km/h (0 Bft) O 96 0 min 0,000 mm 0,0 UV-I 0 W/m 12,4 C 17,3 C 0,0 km/h (0 Bft) 0,00 %
12.07.2015 00:30 17,2 C 74 % 1015,4 hPa 0,0 l/m 0,0 km/h (0 Bft) N-NW 346 0 min 0,000 mm 0,0 UV-I 0 W/m 12,5 C 17,2 C 0,0 km/h (0 Bft) 0,00 %
12.07.2015 00:35 17,2 C 74 % 1015,4 hPa 0,0 l/m 0,7 km/h (0 Bft) W-SW 255 0 min 0,000 mm 0,0 UV-I 0 W/m 12,5 C 17,2 C 4,0 km/h (1 Bft) 0,00 %
12.07.2015 00:40 17,1 C 74 % 1015,4 hPa 0,0 l/m 0,0 km/h (0 Bft) NO 41 0 min 0,000 mm 0,0 UV-I 0 W/m 12,4 C 17,1 C 0,0 km/h (0 Bft) 0,00 %
12.07.2015 00:45 17,0 C 75 % 1015,4 hPa 0,0 l/m 0,0 km/h (0 Bft) NO 35 0 min 0,000 mm 0,0 UV-I 0 W/m 12,5 C 17,0 C 0,0 km/h (0 Bft) 0,00 %
12.07.2015 00:50 17,0 C 76 % 1015,4 hPa 0,0 l/m 0,0 km/h (0 Bft) W-SW 256 0 min 0,000 mm 0,0 UV-I 0 W/m 12,7 C 17,0 C 0,0 km/h (0 Bft) 0,00 %
12.07.2015 00:55 16,9 C 77 % 1015,6 hPa 0,0 l/m 0,0 km/h (0 Bft) NO 46 0 min 0,000 mm 0,0 UV-I 0 W/m 12,8 C 16,9 C 0,0 km/h (0 Bft) 0,00 %
12.07.2015 01:00 16,8 C 77 % 1015,5 hPa 0,0 l/m 0,0 km/h (0 Bft) N 356 0 min 0,000 mm 0,0 UV-I 0 W/m 12,7 C 16,8 C 0,0 km/h (0 Bft) 0,00 %
12.07.2015 01:05 16,7 C 78 % 1015,5 hPa 0,0 l/m 0,0 km/h (0 Bft) N-NO 28 0 min 0,000 mm 0,0 UV-I 0 W/m 12,8 C 16,7 C 0,0 km/h (0 Bft) 0,00 %
12.07.2015 01:10 16,6 C 78 % 1015,4 hPa 0,0 l/m 0,0 km/h (0 Bft) NO 42 0 min 0,000 mm 0,0 UV-I 0 W/m 12,7 C 16,6 C 0,0 km/h (0 Bft) 0,00 %
12.07.2015 01:15 16,6 C 78 % 1015,4 hPa 0,0 l/m 0,0 km/h (0 Bft) NO 53 0 min 0,000 mm 0,0 UV-I 0 W/m 12,7 C 16,6 C 0,0 km/h (0 Bft) 0,00 %
12.07.2015 01:20 16,5 C 79 % 1015,6 hPa 0,0 l/m 0,0 km/h (0 Bft) O-NO 72 0 min 0,000 mm 0,0 UV-I 0 W/m 12,8 C 16,5 C 0,0 km/h (0 Bft) 0,00 %
12.07.2015 01:25 16,4 C 79 % 1015,6 hPa 0,0 l/m 0,0 km/h (0 Bft) NO 41 0 min 0,000 mm 0,0 UV-I 0 W/m 12,7 C 16,4 C 0,0 km/h (0 Bft) 0,00 %
12.07.2015 01:30 16,2 C 80 % 1015,5 hPa 0,0 l/m 0,0 km/h (0 Bft) NO 41 0 min 0,000 mm 0,0 UV-I 0 W/m 12,7 C 16,2 C 0,0 km/h (0 Bft) 0,00 %
12.07.2015 01:35 15,9 C 81 % 1015,6 hPa 0,0 l/m 0,0 km/h (0 Bft) N-NO 28 0 min 0,000 mm 0,0 UV-I 0 W/m 12,6 C 15,9 C 0,0 km/h (0 Bft) 0,00 %
12.07.2015 01:40 15,7 C 82 % 1015,8 hPa 0,0 l/m 0,0 km/h (0 Bft) NO 47 0 min 0,000 mm 0,0 UV-I 0 W/m 12,6 C 15,7 C 0,0 km/h (0 Bft) 0,00 %
12.07.2015 01:45 15,6 C 82 % 1015,8 hPa 0,0 l/m 0,0 km/h (0 Bft) NO 48 0 min 0,000 mm 0,0 UV-I 0 W/m 12,5 C 15,6 C 0,0 km/h (0 Bft) 0,00 %
12.07.2015 01:50 15,5 C 82 % 1015,7 hPa 0,0 l/m 0,0 km/h (0 Bft) N-NO 25 0 min 0,000 mm 0,0 UV-I 0 W/m 12,4 C 15,5 C 0,0 km/h (0 Bft) 0,00 %
12.07.2015 01:55 15,7 C 80 % 1015,6 hPa 0,0 l/m 0,0 km/h (0 Bft) O-NO 58 0 min 0,000 mm 0,0 UV-I 0 W/m 12,3 C 15,7 C 0,0 km/h (0 Bft) 0,00 %
12.07.2015 02:00 15,9 C 80 % 1015,4 hPa 0,0 l/m 0,0 km/h (0 Bft) NO 36 0 min 0,000 mm 0,0 UV-I 0 W/m 12,5 C 15,9 C 0,0 km/h (0 Bft) 0,00 %
12.07.2015 02:05 16,0 C 80 % 1015,6 hPa 0,0 l/m 0,0 km/h (0 Bft) NO 36 0 min 0,000 mm 0,0 UV-I 0 W/m 12,5 C 16,0 C 0,0 km/h (0 Bft) 0,00 %
12.07.2015 02:10 16,2 C 79 % 1015,3 hPa 0,0 l/m 0,0 km/h (0 Bft) N-NO 24 0 min 0,000 mm 0,0 UV-I 0 W/m 12,6 C 16,2 C 0,0 km/h (0 Bft) 0,00 %
12.07.2015 02:15 16,3 C 79 % 1015,4 hPa 0,0 l/m 0,4 km/h (0 Bft) N-NO 15 0 min 0,000 mm 0,0 UV-I 0 W/m 12,6 C 16,3 C 4,0 km/h (1 Bft) 0,00 %
12.07.2015 02:20 16,4 C 79 % 1015,2 hPa 0,0 l/m 0,0 km/h (0 Bft) O 90 0 min 0,000 mm 0,0 UV-I 0 W/m 12,7 C 16,4 C 0,0 km/h (0 Bft) 0,00 %
12.07.2015 02:25 16,4 C 79 % 1015,3 hPa 0,0 l/m 0,0 km/h (0 Bft) NO 35 0 min 0,000 mm 0,0 UV-I 0 W/m 12,7 C 16,4 C 0,0 km/h (0 Bft) 0,00 %
12.07.2015 02:30 16,4 C 79 % 1015,3 hPa 0,0 l/m 3,2 km/h (1 Bft) NW 304 0 min 0,000 mm 0,0 UV-I 0 W/m 12,7 C 16,4 C 4,0 km/h (1 Bft) 0,00 %
12.07.2015 02:35 16,4 C 79 % 1015,2 hPa 0,0 l/m 0,0 km/h (0 Bft) N 358 0 min 0,000 mm 0,0 UV-I 0 W/m 12,7 C 16,4 C 0,0 km/h (0 Bft) 0,00 %
12.07.2015 02:40 16,5 C 79 % 1015,2 hPa 0,0 l/m 0,0 km/h (0 Bft) NO 47 0 min 0,000 mm 0,0 UV-I 0 W/m 12,8 C 16,5 C 0,0 km/h (0 Bft) 0,00 %
12.07.2015 02:45 16,5 C 79 % 1015,2 hPa 0,0 l/m 0,0 km/h (0 Bft) NO 38 0 min 0,000 mm 0,0 UV-I 0 W/m 12,8 C 16,5 C 0,0 km/h (0 Bft) 0,00 %
12.07.2015 02:50 16,4 C 79 % 1015,0 hPa 0,0 l/m 2,9 km/h (1 Bft) W-SW 258 0 min 0,000 mm 0,0 UV-I 0 W/m 12,7 C 16,4 C 4,0 km/h (1 Bft) 0,00 %
12.07.2015 02:55 16,4 C 79 % 1015,3 hPa 0,0 l/m 0,0 km/h (0 Bft) NW 319 0 min 0,000 mm 0,0 UV-I 0 W/m 12,7 C 16,4 C 0,0 km/h (0 Bft) 0,00 %
12.07.2015 03:00 16,4 C 79 % 1015,1 hPa 0,0 l/m 2,2 km/h (1 Bft) W-SW 257 0 min 0,000 mm 0,0 UV-I 0 W/m 12,7 C 16,4 C 4,0 km/h (1 Bft) 0,00 %
12.07.2015 03:05 16,5 C 79 % 1015,3 hPa 0,0 l/m 0,4 km/h (0 Bft) N-NO 28 0 min 0,000 mm 0,0 UV-I 0 W/m 12,8 C 16,5 C 4,0 km/h (1 Bft) 0,00 %
12.07.2015 03:10 16,6 C 78 % 1015,3 hPa 0,0 l/m 0,0 km/h (0 Bft) N 356 0 min 0,000 mm 0,0 UV-I 0 W/m 12,7 C 16,6 C 0,0 km/h (0 Bft) 0,00 %
12.07.2015 03:15 16,7 C 78 % 1015,4 hPa 0,0 l/m 0,0 km/h (0 Bft) N 353 0 min 0,000 mm 0,0 UV-I 0 W/m 12,8 C 16,7 C 0,0 km/h (0 Bft) 0,00 %
12.07.2015 03:20 16,8 C 78 % 1015,3 hPa 0,0 l/m 1,4 km/h (1 Bft) W-NW 283 0 min 0,000 mm 0,0 UV-I 0 W/m 12,9 C 16,8 C 4,0 km/h (1 Bft) 0,00 %
12.07.2015 03:25 16,8 C 78 % 1015,2 hPa 0,0 l/m 4,7 km/h (1 Bft) W 259 0 min 0,000 mm 0,0 UV-I 0 W/m 12,9 C 16,8 C 7,9 km/h (2 Bft) 0,00 %
12.07.2015 03:30 16,8 C 78 % 1015,3 hPa 0,0 l/m 2,9 km/h (1 Bft) W-NW 300 0 min 0,000 mm 0,0 UV-I 0 W/m 12,9 C 16,8 C 4,0 km/h (1 Bft) 0,00 %
12.07.2015 03:35 16,7 C 78 % 1015,3 hPa 0,0 l/m 0,0 km/h (0 Bft) N 350 0 min 0,000 mm 0,0 UV-I 0 W/m 12,8 C 16,7 C 0,0 km/h (0 Bft) 0,00 %
12.07.2015 03:40 16,6 C 79 % 1015,4 hPa 0,0 l/m 0,0 km/h (0 Bft) NO 53 0 min 0,000 mm 0,0 UV-I 0 W/m 12,9 C 16,6 C 0,0 km/h (0 Bft) 0,00 %
12.07.2015 03:45 16,4 C 79 % 1015,3 hPa 0,0 l/m 0,4 km/h (0 Bft) NO 38 0 min 0,000 mm 0,0 UV-I 0 W/m 12,7 C 16,4 C 4,0 km/h (1 Bft) 0,00 %
12.07.2015 03:50 16,2 C 80 % 1015,5 hPa 0,0 l/m 0,4 km/h (0 Bft) W-NW 290 0 min 0,000 mm 0,0 UV-I 0 W/m 12,7 C 16,2 C 4,0 km/h (1 Bft) 0,00 %
12.07.2015 03:55 16,1 C 80 % 1015,6 hPa 0,0 l/m 0,0 km/h (0 Bft) N 351 0 min 0,000 mm 0,0 UV-I 0 W/m 12,6 C 16,1 C 0,0 km/h (0 Bft) 0,00 %
12.07.2015 04:00 15,9 C 82 % 1015,5 hPa 0,0 l/m 0,0 km/h (0 Bft) NO 36 0 min 0,000 mm 0,0 UV-I 0 W/m 12,8 C 15,9 C 0,0 km/h (0 Bft) 0,00 %
12.07.2015 04:05 15,8 C 82 % 1015,5 hPa 0,0 l/m 0,0 km/h (0 Bft) NO 40 0 min 0,000 mm 0,0 UV-I 0 W/m 12,7 C 15,8 C 0,0 km/h (0 Bft) 0,00 %
12.07.2015 04:10 15,7 C 83 % 1015,7 hPa 0,0 l/m 0,0 km/h (0 Bft) NO 36 0 min 0,000 mm 0,0 UV-I 0 W/m 12,8 C 15,7 C 0,0 km/h (0 Bft) 0,00 %
12.07.2015 04:15 15,6 C 83 % 1015,6 hPa 0,0 l/m 0,0 km/h (0 Bft) NO 40 0 min 0,000 mm 0,0 UV-I 0 W/m 12,7 C 15,6 C 0,0 km/h (0 Bft) 0,00 %
12.07.2015 04:20 15,5 C 84 % 1015,6 hPa 0,0 l/m 0,0 km/h (0 Bft) NO 46 0 min 0,000 mm 0,0 UV-I 0 W/m 12,8 C 15,5 C 0,0 km/h (0 Bft) 0,00 %
12.07.2015 04:25 15,3 C 84 % 1015,7 hPa 0,0 l/m 0,0 km/h (0 Bft) NO 38 0 min 0,000 mm 0,0 UV-I 0 W/m 12,6 C 15,3 C 0,0 km/h (0 Bft) 0,00 %
12.07.2015 04:30 15,2 C 85 % 1015,7 hPa 0,0 l/m 0,0 km/h (0 Bft) N-NO 32 0 min 0,000 mm 0,0 UV-I 0 W/m 12,7 C 15,2 C 0,0 km/h (0 Bft) 0,00 %
12.07.2015 04:35 15,2 C 85 % 1015,8 hPa 0,0 l/m 0,0 km/h (0 Bft) NO 43 0 min 0,000 mm 0,0 UV-I 0 W/m 12,7 C 15,2 C 0,0 km/h (0 Bft) 0,00 %
12.07.2015 04:40 15,1 C 85 % 1015,9 hPa 0,0 l/m 0,0 km/h (0 Bft) NO 35 0 min 0,000 mm 0,0 UV-I 0 W/m 12,6 C 15,1 C 0,0 km/h (0 Bft) 0,00 %
12.07.2015 04:45 15,0 C 85 % 1015,9 hPa 0,0 l/m 0,0 km/h (0 Bft) O-NO 57 0 min 0,000 mm 0,0 UV-I 0 W/m 12,5 C 15,0 C 0,0 km/h (0 Bft) 0,00 %
12.07.2015 04:50 15,0 C 86 % 1015,9 hPa 0,0 l/m 0,0 km/h (0 Bft) NO 49 0 min 0,000 mm 0,0 UV-I 0 W/m 12,7 C 15,0 C 0,0 km/h (0 Bft) 0,00 %
12.07.2015 04:55 15,0 C 86 % 1015,8 hPa 0,0 l/m 0,0 km/h (0 Bft) NO 53 0 min 0,000 mm 0,0 UV-I 0 W/m 12,7 C 15,0 C 0,0 km/h (0 Bft) 0,00 %
12.07.2015 05:00 15,0 C 86 % 1015,8 hPa 0,0 l/m 0,0 km/h (0 Bft) NO 36 0 min 0,000 mm 0,0 UV-I 0 W/m 12,7 C 15,0 C 0,0 km/h (0 Bft) 0,00 %
12.07.2015 05:05 15,0 C 86 % 1015,9 hPa 0,0 l/m 0,0 km/h (0 Bft) NO 41 0 min 0,000 mm 0,0 UV-I 0 W/m 12,7 C 15,0 C 0,0 km/h (0 Bft) 0,00 %
12.07.2015 05:10 15,1 C 86 % 1016,0 hPa 0,0 l/m 0,0 km/h (0 Bft) NO 44 0 min 0,000 mm 0,0 UV-I 0 W/m 12,8 C 15,1 C 0,0 km/h (0 Bft) 0,00 %
12.07.2015 05:15 15,0 C 86 % 1016,0 hPa 0,0 l/m 0,0 km/h (0 Bft) N-NW 335 0 min 0,000 mm 0,0 UV-I 0 W/m 12,7 C 15,0 C 0,0 km/h (0 Bft) 0,00 %
12.07.2015 05:20 15,1 C 86 % 1015,9 hPa 0,0 l/m 0,0 km/h (0 Bft) N-NO 25 0 min 0,000 mm 0,0 UV-I 0 W/m 12,8 C 15,1 C 0,0 km/h (0 Bft) 0,00 %
12.07.2015 05:25 15,1 C 85 % 1016,0 hPa 0,0 l/m 0,0 km/h (0 Bft) NO 46 0 min 0,000 mm 0,0 UV-I 0 W/m 12,6 C 15,1 C 0,0 km/h (0 Bft) 0,00 %
12.07.2015 05:30 15,2 C 85 % 1016,0 hPa 0,0 l/m 0,0 km/h (0 Bft) NO 44 0 min 0,000 mm 0,0 UV-I 1 W/m 12,7 C 15,2 C 0,0 km/h (0 Bft) 0,00 %
12.07.2015 05:35 15,3 C 85 % 1015,8 hPa 0,0 l/m 0,0 km/h (0 Bft) NO 49 0 min 0,000 mm 0,0 UV-I 4 W/m 12,8 C 15,3 C 0,0 km/h (0 Bft) 0,00 %
12.07.2015 05:40 15,3 C 84 % 1016,0 hPa 0,0 l/m 0,0 km/h (0 Bft) NO 46 0 min 0,000 mm 0,0 UV-I 8 W/m 12,6 C 15,3 C 0,0 km/h (0 Bft) 0,00 %
12.07.2015 05:45 15,4 C 84 % 1016,1 hPa 0,0 l/m 0,0 km/h (0 Bft) NO 44 0 min 0,000 mm 0,0 UV-I 15 W/m 12,7 C 15,4 C 0,0 km/h (0 Bft) 0,00 %
12.07.2015 05:50 15,4 C 84 % 1016,1 hPa 0,0 l/m 0,0 km/h (0 Bft) NO 51 0 min 0,000 mm 0,0 UV-I 21 W/m 12,7 C 15,4 C 0,0 km/h (0 Bft) 0,00 %
12.07.2015 05:55 15,6 C 84 % 1016,1 hPa 0,0 l/m 0,0 km/h (0 Bft) NO 46 0 min 0,000 mm 0,0 UV-I 29 W/m 12,9 C 15,6 C 0,0 km/h (0 Bft) 0,00 %
12.07.2015 06:00 15,8 C 82 % 1016,0 hPa 0,0 l/m 0,0 km/h (0 Bft) NO 46 0 min 0,000 mm 0,0 UV-I 46 W/m 12,7 C 15,8 C 0,0 km/h (0 Bft) 0,00 %
12.07.2015 06:05 16,1 C 81 % 1015,9 hPa 0,0 l/m 0,0 km/h (0 Bft) NO 46 0 min 0,000 mm 0,0 UV-I 49 W/m 12,8 C 16,1 C 0,0 km/h (0 Bft) 0,00 %
12.07.2015 06:10 16,2 C 80 % 1015,9 hPa 0,0 l/m 0,0 km/h (0 Bft) NO 46 0 min 0,000 mm 0,0 UV-I 46 W/m 12,7 C 16,2 C 0,0 km/h (0 Bft) 0,00 %
12.07.2015 06:15 16,2 C 80 % 1015,8 hPa 0,0 l/m 0,0 km/h (0 Bft) NO 46 0 min 0,000 mm 0,0 UV-I 51 W/m 12,7 C 16,2 C 0,0 km/h (0 Bft) 0,00 %
12.07.2015 06:20 16,3 C 80 % 1016,0 hPa 0,0 l/m 0,0 km/h (0 Bft) NO 46 0 min 0,000 mm 0,0 UV-I 73 W/m 12,8 C 16,3 C 0,0 km/h (0 Bft) 0,00 %
12.07.2015 06:25 16,6 C 80 % 1015,8 hPa 0,0 l/m 0,0 km/h (0 Bft) NO 46 5 min 0,000 mm 0,0 UV-I 107 W/m 13,1 C 16,6 C 0,0 km/h (0 Bft) 0,00 %
12.07.2015 06:30 17,2 C 77 % 1015,7 hPa 0,0 l/m 0,0 km/h (0 Bft) NO 46 5 min 0,000 mm 0,0 UV-I 165 W/m 13,1 C 17,2 C 0,0 km/h (0 Bft) 0,00 %
12.07.2015 06:35 18,0 C 74 % 1015,5 hPa 0,0 l/m 0,0 km/h (0 Bft) NO 47 5 min 0,000 mm 1,0 UV-I 197 W/m 13,3 C 18,0 C 0,0 km/h (0 Bft) 0,00 %
12.07.2015 06:40 18,7 C 70 % 1015,3 hPa 0,0 l/m 0,0 km/h (0 Bft) NO 47 5 min 0,000 mm 1,0 UV-I 205 W/m 13,1 C 18,7 C 0,0 km/h (0 Bft) 0,00 %
12.07.2015 06:45 19,1 C 70 % 1015,7 hPa 0,0 l/m 0,0 km/h (0 Bft) NO 47 5 min 0,000 mm 1,0 UV-I 132 W/m 13,5 C 19,1 C 0,0 km/h (0 Bft) 0,00 %
12.07.2015 06:50 19,1 C 69 % 1015,5 hPa 0,0 l/m 0,0 km/h (0 Bft) NO 41 5 min 0,000 mm 1,0 UV-I 127 W/m 13,3 C 19,1 C 0,0 km/h (0 Bft) 0,00 %
12.07.2015 06:55 19,2 C 70 % 1015,6 hPa 0,0 l/m 0,0 km/h (0 Bft) NO 37 5 min 0,000 mm 1,0 UV-I 279 W/m 13,6 C 19,2 C 0,0 km/h (0 Bft) 0,00 %
12.07.2015 07:00 19,5 C 68 % 1015,6 hPa 0,0 l/m 0,0 km/h (0 Bft) NO 38 5 min 0,000 mm 1,0 UV-I 297 W/m 13,4 C 19,5 C 0,0 km/h (0 Bft) 0,00 %
12.07.2015 07:05 19,9 C 66 % 1015,4 hPa 0,0 l/m 0,0 km/h (0 Bft) NO 34 5 min 0,000 mm 1,0 UV-I 300 W/m 13,4 C 19,9 C 0,0 km/h (0 Bft) 0,00 %
12.07.2015 07:10 20,3 C 65 % 1015,5 hPa 0,0 l/m 0,0 km/h (0 Bft) N-NW 337 5 min 0,000 mm 1,0 UV-I 158 W/m 13,5 C 20,3 C 0,0 km/h (0 Bft) 0,00 %
12.07.2015 07:15 20,5 C 65 % 1015,5 hPa 0,0 l/m 0,0 km/h (0 Bft) NO 38 5 min 0,000 mm 1,0 UV-I 179 W/m 13,7 C 20,5 C 0,0 km/h (0 Bft) 0,00 %
12.07.2015 07:20 20,5 C 67 % 1015,7 hPa 0,0 l/m 0,0 km/h (0 Bft) NO 47 5 min 0,000 mm 1,0 UV-I 199 W/m 14,2 C 20,5 C 0,0 km/h (0 Bft) 0,00 %
12.07.2015 07:25 20,3 C 69 % 1015,6 hPa 0,0 l/m 0,0 km/h (0 Bft) NO 44 0 min 0,000 mm 1,0 UV-I 169 W/m 14,4 C 20,3 C 0,0 km/h (0 Bft) 0,00 %
12.07.2015 07:30 20,0 C 70 % 1015,6 hPa 0,0 l/m 0,0 km/h (0 Bft) NO 49 5 min 0,000 mm 1,0 UV-I 340 W/m 14,4 C 20,0 C 0,0 km/h (0 Bft) 0,00 %
12.07.2015 07:35 19,8 C 69 % 1015,7 hPa 0,0 l/m 0,0 km/h (0 Bft) N-NO 29 5 min 0,000 mm 1,0 UV-I 391 W/m 13,9 C 19,8 C 0,0 km/h (0 Bft) 0,00 %
12.07.2015 07:40 20,2 C 66 % 1015,7 hPa 0,0 l/m 0,0 km/h (0 Bft) N-NO 26 5 min 0,000 mm 1,0 UV-I 417 W/m 13,6 C 20,2 C 0,0 km/h (0 Bft) 0,00 %
12.07.2015 07:45 20,8 C 63 % 1015,5 hPa 0,0 l/m 0,0 km/h (0 Bft) N-NW 337 5 min 0,000 mm 1,0 UV-I 321 W/m 13,5 C 20,8 C 0,0 km/h (0 Bft) 0,00 %
12.07.2015 07:50 21,2 C 62 % 1015,6 hPa 0,0 l/m 0,0 km/h (0 Bft) NO 42 0 min 0,000 mm 1,0 UV-I 205 W/m 13,6 C 21,2 C 0,0 km/h (0 Bft) 0,00 %
12.07.2015 07:55 21,4 C 62 % 1015,4 hPa 0,0 l/m 0,0 km/h (0 Bft) NO 55 0 min 0,000 mm 1,0 UV-I 189 W/m 13,8 C 21,4 C 0,0 km/h (0 Bft) 0,00 %
12.07.2015 08:00 21,3 C 64 % 1015,5 hPa 0,0 l/m 0,0 km/h (0 Bft) N 355 5 min 0,000 mm 1,0 UV-I 489 W/m 14,2 C 21,3 C 0,0 km/h (0 Bft) 0,00 %
12.07.2015 08:05 21,4 C 63 % 1015,5 hPa 0,0 l/m 0,4 km/h (0 Bft) N-NO 17 0 min 0,000 mm 1,0 UV-I 217 W/m 14,1 C 21,4 C 4,0 km/h (1 Bft) 0,00 %
12.07.2015 08:10 21,8 C 60 % 1015,6 hPa 0,0 l/m 0,7 km/h (0 Bft) N 352 5 min 0,000 mm 1,0 UV-I 466 W/m 13,7 C 21,8 C 4,0 km/h (1 Bft) 0,00 %
12.07.2015 08:15 22,0 C 61 % 1015,2 hPa 0,0 l/m 0,0 km/h (0 Bft) NW 324 5 min 0,000 mm 1,0 UV-I 531 W/m 14,1 C 22,0 C 0,0 km/h (0 Bft) 0,00 %
12.07.2015 08:20 22,2 C 61 % 1015,4 hPa 0,0 l/m 0,0 km/h (0 Bft) NO 41 5 min 0,000 mm 1,0 UV-I 275 W/m 14,3 C 22,2 C 0,0 km/h (0 Bft) 0,00 %
12.07.2015 08:25 22,3 C 58 % 1015,6 hPa 0,0 l/m 0,0 km/h (0 Bft) N-NO 31 0 min 0,000 mm 1,0 UV-I 232 W/m 13,6 C 22,3 C 0,0 km/h (0 Bft) 0,00 %
12.07.2015 08:30 22,2 C 59 % 1015,5 hPa 0,0 l/m 0,0 km/h (0 Bft) N-NO 31 5 min 0,000 mm 2,0 UV-I 464 W/m 13,8 C 22,2 C 0,0 km/h (0 Bft) 0,00 %
12.07.2015 08:35 22,4 C 57 % 1015,5 hPa 0,0 l/m 0,0 km/h (0 Bft) NO 36 5 min 0,000 mm 2,0 UV-I 484 W/m 13,5 C 22,4 C 0,0 km/h (0 Bft) 0,00 %
12.07.2015 08:40 22,8 C 55 % 1015,4 hPa 0,0 l/m 0,0 km/h (0 Bft) NO 40 5 min 0,000 mm 1,0 UV-I 489 W/m 13,3 C 22,8 C 0,0 km/h (0 Bft) 0,00 %
12.07.2015 08:45 23,3 C 54 % 1015,5 hPa 0,0 l/m 1,4 km/h (1 Bft) N-NW 345 5 min 0,000 mm 2,0 UV-I 433 W/m 13,5 C 23,3 C 4,0 km/h (1 Bft) 0,00 %
12.07.2015 08:50 23,6 C 56 % 1015,2 hPa 0,0 l/m 0,0 km/h (0 Bft) N-NO 30 5 min 0,000 mm 2,0 UV-I 483 W/m 14,3 C 23,6 C 0,0 km/h (0 Bft) 0,00 %
12.07.2015 08:55 23,8 C 52 % 1015,4 hPa 0,0 l/m 5,4 km/h (1 Bft) W-SW 256 5 min 0,000 mm 2,0 UV-I 488 W/m 13,3 C 23,8 C 7,9 km/h (2 Bft) 0,00 %
12.07.2015 09:00 23,7 C 54 % 1015,3 hPa 0,0 l/m 2,2 km/h (1 Bft) NW 319 5 min 0,000 mm 2,0 UV-I 522 W/m 13,8 C 23,7 C 7,9 km/h (2 Bft) 0,00 %
12.07.2015 09:05 23,7 C 52 % 1015,2 hPa 0,0 l/m 1,8 km/h (1 Bft) N-NW 338 5 min 0,000 mm 2,0 UV-I 469 W/m 13,2 C 23,7 C 4,0 km/h (1 Bft) 0,00 %
12.07.2015 09:10 23,9 C 51 % 1015,3 hPa 0,0 l/m 9,4 km/h (2 Bft) W 276 5 min 0,000 mm 2,0 UV-I 512 W/m 13,1 C 23,1 C 11,9 km/h (2 Bft) 0,00 %
12.07.2015 09:15 24,0 C 53 % 1015,3 hPa 0,0 l/m 2,2 km/h (1 Bft) N 351 5 min 0,000 mm 2,0 UV-I 520 W/m 13,8 C 24,0 C 4,0 km/h (1 Bft) 0,00 %
12.07.2015 09:20 23,9 C 52 % 1015,1 hPa 0,0 l/m 1,8 km/h (1 Bft) NW 324 5 min 0,000 mm 2,0 UV-I 533 W/m 13,4 C 23,9 C 4,0 km/h (1 Bft) 0,00 %
12.07.2015 09:25 24,2 C 51 % 1015,1 hPa 0,0 l/m 0,0 km/h (0 Bft) O 100 5 min 0,000 mm 2,0 UV-I 542 W/m 13,4 C 24,2 C 0,0 km/h (0 Bft) 0,00 %
12.07.2015 09:30 24,7 C 50 % 1015,0 hPa 0,0 l/m 0,4 km/h (0 Bft) N-NO 17 5 min 0,000 mm 2,0 UV-I 555 W/m 13,6 C 24,7 C 4,0 km/h (1 Bft) 0,00 %
12.07.2015 09:35 25,1 C 49 % 1014,8 hPa 0,0 l/m 0,4 km/h (0 Bft) N-NW 330 5 min 0,000 mm 2,0 UV-I 557 W/m 13,6 C 25,1 C 4,0 km/h (1 Bft) 0,00 %
12.07.2015 09:40 25,4 C 49 % 1015,1 hPa 0,0 l/m 0,4 km/h (0 Bft) NO 49 5 min 0,000 mm 2,0 UV-I 556 W/m 13,9 C 25,4 C 4,0 km/h (1 Bft) 0,00 %
12.07.2015 09:45 25,6 C 45 % 1015,0 hPa 0,0 l/m 3,2 km/h (1 Bft) W 262 5 min 0,000 mm 2,0 UV-I 598 W/m 12,8 C 25,6 C 7,9 km/h (2 Bft) 0,00 %
12.07.2015 09:50 25,5 C 47 % 1014,7 hPa 0,0 l/m 0,0 km/h (0 Bft) N-NW 345 5 min 0,000 mm 3,0 UV-I 651 W/m 13,3 C 25,5 C 0,0 km/h (0 Bft) 0,00 %
12.07.2015 09:55 25,4 C 43 % 1014,8 hPa 0,0 l/m 0,0 km/h (0 Bft) N-NO 14 5 min 0,000 mm 2,0 UV-I 645 W/m 11,9 C 25,4 C 0,0 km/h (0 Bft) 0,00 %
12.07.2015 10:00 25,5 C 42 % 1014,7 hPa 0,0 l/m 7,9 km/h (2 Bft) W 272 5 min 0,000 mm 3,0 UV-I 626 W/m 11,6 C 25,1 C 11,9 km/h (2 Bft) 0,00 %
12.07.2015 10:05 25,4 C 45 % 1014,8 hPa 0,0 l/m 0,0 km/h (0 Bft) NO 48 5 min 0,000 mm 3,0 UV-I 611 W/m 12,6 C 25,4 C 0,0 km/h (0 Bft) 0,00 %
12.07.2015 10:10 25,5 C 43 % 1014,8 hPa 0,0 l/m 0,0 km/h (0 Bft) N-NO 28 5 min 0,000 mm 3,0 UV-I 526 W/m 12,0 C 25,5 C 0,0 km/h (0 Bft) 0,00 %
12.07.2015 10:15 26,0 C 43 % 1014,8 hPa 0,0 l/m 0,0 km/h (0 Bft) NO 46 5 min 0,000 mm 3,0 UV-I 650 W/m 12,4 C 26,0 C 0,0 km/h (0 Bft) 0,00 %
12.07.2015 10:20 26,4 C 41 % 1014,7 hPa 0,0 l/m 1,8 km/h (1 Bft) N 352 5 min 0,000 mm 3,0 UV-I 656 W/m 12,1 C 26,4 C 4,0 km/h (1 Bft) 0,00 %
12.07.2015 10:25 26,6 C 41 % 1014,6 hPa 0,0 l/m 4,0 km/h (1 Bft) O 86 5 min 0,000 mm 3,0 UV-I 662 W/m 12,2 C 26,6 C 7,9 km/h (2 Bft) 0,00 %
12.07.2015 10:30 26,6 C 42 % 1014,7 hPa 0,0 l/m 7,2 km/h (2 Bft) N-NW 332 5 min 0,000 mm 3,0 UV-I 674 W/m 12,6 C 26,4 C 7,9 km/h (2 Bft) 0,00 %
12.07.2015 10:35 26,5 C 42 % 1014,6 hPa 0,0 l/m 4,0 km/h (1 Bft) W 278 5 min 0,000 mm 3,0 UV-I 688 W/m 12,5 C 26,5 C 7,9 km/h (2 Bft) 0,00 %
12.07.2015 10:40 26,6 C 43 % 1014,5 hPa 0,0 l/m 0,0 km/h (0 Bft) NO 40 5 min 0,000 mm 3,0 UV-I 698 W/m 13,0 C 26,6 C 0,0 km/h (0 Bft) 0,00 %
12.07.2015 10:45 26,8 C 44 % 1014,4 hPa 0,0 l/m 1,8 km/h (1 Bft) NW 314 5 min 0,000 mm 3,0 UV-I 717 W/m 13,5 C 26,8 C 4,0 km/h (1 Bft) 0,00 %
12.07.2015 10:50 27,4 C 40 % 1014,4 hPa 0,0 l/m 2,9 km/h (1 Bft) W-NW 293 5 min 0,000 mm 4,0 UV-I 725 W/m 12,6 C 27,4 C 4,0 km/h (1 Bft) 0,00 %
12.07.2015 10:55 27,7 C 41 % 1014,3 hPa 0,0 l/m 0,0 km/h (0 Bft) NO 55 5 min 0,000 mm 4,0 UV-I 741 W/m 13,2 C 27,7 C 0,0 km/h (0 Bft) 0,00 %
12.07.2015 11:00 27,8 C 39 % 1014,2 hPa 0,0 l/m 0,7 km/h (0 Bft) N-NO 22 5 min 0,000 mm 4,0 UV-I 751 W/m 12,6 C 27,8 C 4,0 km/h (1 Bft) 0,00 %
12.07.2015 11:05 28,1 C 36 % 1014,3 hPa 0,0 l/m 1,4 km/h (1 Bft) N-NW 343 5 min 0,000 mm 4,0 UV-I 764 W/m 11,6 C 28,1 C 4,0 km/h (1 Bft) 0,00 %
12.07.2015 11:10 28,3 C 41 % 1014,2 hPa 0,0 l/m 2,9 km/h (1 Bft) N 350 5 min 0,000 mm 4,0 UV-I 780 W/m 13,8 C 28,3 C 4,0 km/h (1 Bft) 0,00 %
12.07.2015 11:15 28,3 C 37 % 1014,0 hPa 0,0 l/m 0,4 km/h (0 Bft) NO 44 5 min 0,000 mm 4,0 UV-I 766 W/m 12,2 C 28,3 C 4,0 km/h (1 Bft) 0,00 %
12.07.2015 11:20 28,1 C 35 % 1014,0 hPa 0,0 l/m 6,5 km/h (2 Bft) W-NW 289 5 min 0,000 mm 4,0 UV-I 780 W/m 11,2 C 28,1 C 7,9 km/h (2 Bft) 0,00 %
12.07.2015 11:25 28,0 C 38 % 1014,1 hPa 0,0 l/m 0,7 km/h (0 Bft) O-NO 58 5 min 0,000 mm 5,0 UV-I 836 W/m 12,3 C 28,0 C 4,0 km/h (1 Bft) 0,00 %
12.07.2015 11:30 28,1 C 36 % 1013,9 hPa 0,0 l/m 5,4 km/h (1 Bft) NW 323 0 min 0,000 mm 4,0 UV-I 440 W/m 11,6 C 28,1 C 7,9 km/h (2 Bft) 0,00 %
12.07.2015 11:35 28,2 C 34 % 1013,9 hPa 0,0 l/m 1,8 km/h (1 Bft) W-SW 258 5 min 0,000 mm 5,0 UV-I 902 W/m 10,8 C 28,2 C 7,9 km/h (2 Bft) 0,00 %
12.07.2015 11:40 28,1 C 33 % 1013,8 hPa 0,0 l/m 3,2 km/h (1 Bft) N-NW 340 5 min 0,000 mm 5,0 UV-I 644 W/m 10,3 C 28,1 C 7,9 km/h (2 Bft) 0,00 %
12.07.2015 11:45 28,0 C 33 % 1013,8 hPa 0,0 l/m 9,0 km/h (2 Bft) W-NW 303 5 min 0,000 mm 5,0 UV-I 793 W/m 10,2 C 27,6 C 11,9 km/h (2 Bft) 0,00 %
12.07.2015 11:50 27,9 C 34 % 1014,0 hPa 0,0 l/m 6,5 km/h (2 Bft) W-SW 256 5 min 0,000 mm 3,0 UV-I 554 W/m 10,6 C 27,9 C 11,9 km/h (2 Bft) 0,00 %
12.07.2015 11:55 27,9 C 36 % 1013,9 hPa 0,0 l/m 10,4 km/h (2 Bft) W 259 0 min 0,000 mm 4,0 UV-I 377 W/m 11,4 C 27,3 C 15,8 km/h (3 Bft) 0,00 %
12.07.2015 12:00 27,8 C 35 % 1014,1 hPa 0,0 l/m 0,0 km/h (0 Bft) N-NO 27 0 min 0,000 mm 4,0 UV-I 411 W/m 10,9 C 27,8 C 0,0 km/h (0 Bft) 0,00 %
12.07.2015 12:05 27,5 C 34 % 1014,0 hPa 0,0 l/m 4,3 km/h (1 Bft) N 350 5 min 0,000 mm 5,0 UV-I 905 W/m 10,2 C 27,5 C 11,9 km/h (2 Bft) 0,00 %
12.07.2015 12:10 27,5 C 35 % 1013,9 hPa 0,0 l/m 5,4 km/h (1 Bft) W 276 5 min 0,000 mm 5,0 UV-I 756 W/m 10,7 C 27,5 C 7,9 km/h (2 Bft) 0,00 %
12.07.2015 12:15 27,7 C 35 % 1013,8 hPa 0,0 l/m 2,9 km/h (1 Bft) NW 310 5 min 0,000 mm 5,0 UV-I 543 W/m 10,8 C 27,7 C 4,0 km/h (1 Bft) 0,00 %
12.07.2015 12:20 28,1 C 33 % 1013,7 hPa 0,0 l/m 8,3 km/h (2 Bft) W 277 5 min 0,000 mm 4,0 UV-I 935 W/m 10,3 C 27,8 C 11,9 km/h (2 Bft) 0,00 %
12.07.2015 12:25 28,3 C 32 % 1013,9 hPa 0,0 l/m 3,2 km/h (1 Bft) S-SO 166 5 min 0,000 mm 5,0 UV-I 574 W/m 10,0 C 28,3 C 4,0 km/h (1 Bft) 0,00 %
12.07.2015 12:30 28,1 C 34 % 1013,6 hPa 0,0 l/m 14,0 km/h (3 Bft) W 261 5 min 0,000 mm 4,0 UV-I 596 W/m 10,7 C 27,2 C 19,8 km/h (3 Bft) 0,00 %
12.07.2015 12:35 27,9 C 33 % 1013,8 hPa 0,0 l/m 2,2 km/h (1 Bft) SW 233 5 min 0,000 mm 4,0 UV-I 825 W/m 10,1 C 27,9 C 4,0 km/h (1 Bft) 0,00 %
12.07.2015 12:40 28,0 C 34 % 1014,0 hPa 0,0 l/m 0,0 km/h (0 Bft) N 354 5 min 0,000 mm 4,0 UV-I 562 W/m 10,7 C 28,0 C 0,0 km/h (0 Bft) 0,00 %
12.07.2015 12:45 28,2 C 33 % 1013,6 hPa 0,0 l/m 2,9 km/h (1 Bft) W-NW 299 5 min 0,000 mm 4,0 UV-I 989 W/m 10,4 C 28,2 C 7,9 km/h (2 Bft) 0,00 %
12.07.2015 12:50 28,4 C 32 % 1013,8 hPa 0,0 l/m 3,2 km/h (1 Bft) N-NO 18 5 min 0,000 mm 5,0 UV-I 896 W/m 10,1 C 28,4 C 4,0 km/h (1 Bft) 0,00 %
12.07.2015 12:55 28,3 C 32 % 1013,7 hPa 0,0 l/m 3,2 km/h (1 Bft) O 80 5 min 0,000 mm 4,0 UV-I 885 W/m 10,0 C 28,3 C 4,0 km/h (1 Bft) 0,00 %
12.07.2015 13:00 28,3 C 33 % 1013,7 hPa 0,0 l/m 7,9 km/h (2 Bft) W-NW 298 5 min 0,000 mm 6,0 UV-I 979 W/m 10,5 C 28,1 C 11,9 km/h (2 Bft) 0,00 %
12.07.2015 13:05 28,8 C 34 % 1013,5 hPa 0,0 l/m 4,0 km/h (1 Bft) W 259 5 min 0,000 mm 6,0 UV-I 967 W/m 11,4 C 28,8 C 7,9 km/h (2 Bft) 0,00 %
12.07.2015 13:10 29,5 C 31 % 1013,3 hPa 0,0 l/m 6,5 km/h (2 Bft) W-SW 256 5 min 0,000 mm 5,0 UV-I 907 W/m 10,6 C 29,5 C 7,9 km/h (2 Bft) 0,00 %
12.07.2015 13:15 29,7 C 32 % 1013,4 hPa 0,0 l/m 0,4 km/h (0 Bft) W-NW 301 5 min 0,000 mm 5,0 UV-I 1011 W/m 11,2 C 29,7 C 4,0 km/h (1 Bft) 0,00 %
12.07.2015 13:20 29,5 C 30 % 1013,2 hPa 0,0 l/m 11,9 km/h (2 Bft) W-NW 298 5 min 0,000 mm 4,0 UV-I 923 W/m 10,1 C 29,0 C 15,8 km/h (3 Bft) 0,00 %
12.07.2015 13:25 29,3 C 32 % 1013,4 hPa 0,0 l/m 1,8 km/h (1 Bft) W 273 5 min 0,000 mm 5,0 UV-I 875 W/m 10,9 C 29,3 C 4,0 km/h (1 Bft) 0,00 %
12.07.2015 13:30 29,3 C 31 % 1013,5 hPa 0,0 l/m 4,7 km/h (1 Bft) W-SW 256 5 min 0,000 mm 5,0 UV-I 806 W/m 10,4 C 29,3 C 7,9 km/h (2 Bft) 0,00 %
12.07.2015 13:35 29,5 C 31 % 1013,3 hPa 0,0 l/m 9,7 km/h (2 Bft) W-NW 301 5 min 0,000 mm 5,0 UV-I 978 W/m 10,6 C 29,2 C 24,1 km/h (4 Bft) 0,00 %
12.07.2015 13:40 29,3 C 31 % 1013,2 hPa 0,0 l/m 0,4 km/h (0 Bft) N 351 5 min 0,000 mm 5,0 UV-I 781 W/m 10,4 C 29,3 C 4,0 km/h (1 Bft) 0,00 %
12.07.2015 13:45 28,8 C 31 % 1013,4 hPa 0,0 l/m 2,9 km/h (1 Bft) N 354 5 min 0,000 mm 4,0 UV-I 918 W/m 10,0 C 28,8 C 4,0 km/h (1 Bft) 0,00 %
12.07.2015 13:50 28,8 C 31 % 1013,2 hPa 0,0 l/m 0,0 km/h (0 Bft) N-NO 12 5 min 0,000 mm 4,0 UV-I 964 W/m 10,0 C 28,8 C 0,0 km/h (0 Bft) 0,00 %
12.07.2015 13:55 29,1 C 33 % 1013,2 hPa 0,0 l/m 5,4 km/h (1 Bft) N 351 5 min 0,000 mm 4,0 UV-I 945 W/m 11,2 C 29,1 C 11,9 km/h (2 Bft) 0,00 %
12.07.2015 14:00 29,3 C 31 % 1013,0 hPa 0,0 l/m 4,3 km/h (1 Bft) SW 234 5 min 0,000 mm 5,0 UV-I 639 W/m 10,4 C 29,3 C 7,9 km/h (2 Bft) 0,00 %
12.07.2015 14:05 29,2 C 31 % 1013,0 hPa 0,0 l/m 4,3 km/h (1 Bft) N-NW 344 5 min 0,000 mm 5,0 UV-I 842 W/m 10,3 C 29,2 C 7,9 km/h (2 Bft) 0,00 %
12.07.2015 14:10 29,3 C 31 % 1013,0 hPa 0,0 l/m 5,4 km/h (1 Bft) O 79 5 min 0,000 mm 5,0 UV-I 830 W/m 10,4 C 29,3 C 11,9 km/h (2 Bft) 0,00 %
12.07.2015 14:15 29,5 C 30 % 1013,0 hPa 0,0 l/m 3,2 km/h (1 Bft) N-NW 336 5 min 0,000 mm 4,0 UV-I 831 W/m 10,1 C 29,5 C 4,0 km/h (1 Bft) 0,00 %
12.07.2015 14:20 29,5 C 31 % 1012,9 hPa 0,0 l/m 6,5 km/h (2 Bft) N-NW 340 5 min 0,000 mm 4,0 UV-I 885 W/m 10,6 C 29,5 C 11,9 km/h (2 Bft) 0,00 %
12.07.2015 14:25 29,1 C 31 % 1012,9 hPa 0,0 l/m 5,4 km/h (1 Bft) W 276 5 min 0,000 mm 4,0 UV-I 937 W/m 10,2 C 29,1 C 7,9 km/h (2 Bft) 0,00 %
12.07.2015 14:30 29,0 C 31 % 1012,7 hPa 0,0 l/m 0,7 km/h (0 Bft) N-NW 336 5 min 0,000 mm 4,0 UV-I 959 W/m 10,1 C 29,0 C 4,0 km/h (1 Bft) 0,00 %
12.07.2015 14:35 29,2 C 31 % 1012,7 hPa 0,0 l/m 7,2 km/h (2 Bft) N-NW 327 5 min 0,000 mm 3,0 UV-I 943 W/m 10,3 C 29,1 C 7,9 km/h (2 Bft) 0,00 %
12.07.2015 14:40 29,2 C 30 % 1012,8 hPa 0,0 l/m 2,9 km/h (1 Bft) N-NW 327 5 min 0,000 mm 4,0 UV-I 985 W/m 9,8 C 29,2 C 4,0 km/h (1 Bft) 0,00 %
12.07.2015 14:45 29,3 C 31 % 1012,7 hPa 0,0 l/m 0,4 km/h (0 Bft) N-NW 340 5 min 0,000 mm 4,0 UV-I 906 W/m 10,4 C 29,3 C 4,0 km/h (1 Bft) 0,00 %
12.07.2015 14:50 29,7 C 30 % 1012,6 hPa 0,0 l/m 9,4 km/h (2 Bft) NW 324 5 min 0,000 mm 4,0 UV-I 963 W/m 10,3 C 29,4 C 15,8 km/h (3 Bft) 0,00 %
12.07.2015 14:55 29,9 C 29 % 1012,7 hPa 0,0 l/m 4,0 km/h (1 Bft) W-SW 237 0 min 0,000 mm 4,0 UV-I 282 W/m 9,9 C 29,9 C 7,9 km/h (2 Bft) 0,00 %
12.07.2015 15:00 29,9 C 29 % 1012,5 hPa 0,0 l/m 6,8 km/h (2 Bft) W-SW 256 5 min 0,000 mm 4,0 UV-I 927 W/m 9,9 C 29,9 C 7,9 km/h (2 Bft) 0,00 %
12.07.2015 15:05 29,9 C 28 % 1012,6 hPa 0,0 l/m 5,4 km/h (1 Bft) W-NW 284 5 min 0,000 mm 4,0 UV-I 923 W/m 9,4 C 29,9 C 7,9 km/h (2 Bft) 0,00 %
12.07.2015 15:10 29,9 C 30 % 1012,4 hPa 0,0 l/m 0,4 km/h (0 Bft) O-NO 66 5 min 0,000 mm 4,0 UV-I 910 W/m 10,4 C 29,9 C 4,0 km/h (1 Bft) 0,00 %
12.07.2015 15:15 29,9 C 32 % 1012,4 hPa 0,0 l/m 0,0 km/h (0 Bft) NO 43 5 min 0,000 mm 4,0 UV-I 855 W/m 11,4 C 29,9 C 0,0 km/h (0 Bft) 0,00 %
12.07.2015 15:20 29,9 C 30 % 1012,2 hPa 0,0 l/m 0,4 km/h (0 Bft) O-NO 66 5 min 0,000 mm 2,0 UV-I 942 W/m 10,4 C 29,9 C 4,0 km/h (1 Bft) 0,00 %
12.07.2015 15:25 29,7 C 31 % 1012,5 hPa 0,0 l/m 4,0 km/h (1 Bft) NW 313 5 min 0,000 mm 2,0 UV-I 848 W/m 10,7 C 29,7 C 7,9 km/h (2 Bft) 0,00 %
12.07.2015 15:30 29,1 C 32 % 1012,5 hPa 0,0 l/m 4,3 km/h (1 Bft) NO 41 5 min 0,000 mm 4,0 UV-I 828 W/m 10,7 C 29,1 C 7,9 km/h (2 Bft) 0,00 %
12.07.2015 15:35 29,1 C 32 % 1012,5 hPa 0,0 l/m 0,7 km/h (0 Bft) NO 34 5 min 0,000 mm 4,0 UV-I 664 W/m 10,7 C 29,1 C 4,0 km/h (1 Bft) 0,00 %
12.07.2015 15:40 29,4 C 33 % 1012,4 hPa 0,0 l/m 0,4 km/h (0 Bft) SW 232 5 min 0,000 mm 2,0 UV-I 713 W/m 11,4 C 29,4 C 4,0 km/h (1 Bft) 0,00 %
12.07.2015 15:45 29,6 C 31 % 1012,3 hPa 0,0 l/m 0,7 km/h (0 Bft) W 274 5 min 0,000 mm 4,0 UV-I 997 W/m 10,7 C 29,6 C 4,0 km/h (1 Bft) 0,00 %
12.07.2015 15:50 29,7 C 32 % 1012,0 hPa 0,0 l/m 6,5 km/h (2 Bft) O-SO 111 5 min 0,000 mm 4,0 UV-I 880 W/m 11,2 C 29,7 C 7,9 km/h (2 Bft) 0,00 %
12.07.2015 15:55 29,7 C 30 % 1012,0 hPa 0,0 l/m 0,4 km/h (0 Bft) W 278 5 min 0,000 mm 3,0 UV-I 896 W/m 10,3 C 29,7 C 4,0 km/h (1 Bft) 0,00 %
12.07.2015 16:00 29,9 C 31 % 1012,0 hPa 0,0 l/m 7,2 km/h (2 Bft) SW 221 5 min 0,000 mm 3,0 UV-I 727 W/m 10,9 C 29,8 C 11,9 km/h (2 Bft) 0,00 %
12.07.2015 16:05 29,9 C 29 % 1012,0 hPa 0,0 l/m 0,7 km/h (0 Bft) N-NO 20 5 min 0,000 mm 3,0 UV-I 631 W/m 9,9 C 29,9 C 4,0 km/h (1 Bft) 0,00 %
12.07.2015 16:10 30,0 C 29 % 1011,9 hPa 0,0 l/m 0,0 km/h (0 Bft) O 83 5 min 0,000 mm 3,0 UV-I 457 W/m 10,0 C 30,0 C 0,0 km/h (0 Bft) 0,00 %
12.07.2015 16:15 30,0 C 30 % 1011,9 hPa 0,0 l/m 3,2 km/h (1 Bft) W-NW 297 5 min 0,000 mm 3,0 UV-I 385 W/m 10,5 C 30,0 C 7,9 km/h (2 Bft) 0,00 %
12.07.2015 16:20 30,0 C 31 % 1011,6 hPa 0,0 l/m 4,0 km/h (1 Bft) N-NW 343 5 min 0,000 mm 3,0 UV-I 445 W/m 11,0 C 30,0 C 7,9 km/h (2 Bft) 0,00 %
12.07.2015 16:25 29,9 C 31 % 1011,5 hPa 0,0 l/m 5,4 km/h (1 Bft) SW 221 5 min 0,000 mm 2,0 UV-I 514 W/m 10,9 C 29,9 C 7,9 km/h (2 Bft) 0,00 %
12.07.2015 16:30 29,7 C 29 % 1011,6 hPa 0,0 l/m 3,2 km/h (1 Bft) NW 323 5 min 0,000 mm 3,0 UV-I 464 W/m 9,7 C 29,7 C 7,9 km/h (2 Bft) 0,00 %
12.07.2015 16:35 29,5 C 31 % 1011,6 hPa 0,0 l/m 5,8 km/h (2 Bft) W-SW 256 5 min 0,000 mm 3,0 UV-I 471 W/m 10,6 C 29,5 C 7,9 km/h (2 Bft) 0,00 %
12.07.2015 16:40 29,5 C 30 % 1011,4 hPa 0,0 l/m 0,7 km/h (0 Bft) N-NW 348 5 min 0,000 mm 3,0 UV-I 743 W/m 10,1 C 29,5 C 4,0 km/h (1 Bft) 0,00 %
12.07.2015 16:45 29,8 C 29 % 1011,3 hPa 0,0 l/m 5,4 km/h (1 Bft) W-NW 291 5 min 0,000 mm 3,0 UV-I 756 W/m 9,8 C 29,8 C 7,9 km/h (2 Bft) 0,00 %
12.07.2015 16:50 30,1 C 29 % 1011,4 hPa 0,0 l/m 0,0 km/h (0 Bft) NO 39 5 min 0,000 mm 2,0 UV-I 699 W/m 10,1 C 30,1 C 0,0 km/h (0 Bft) 0,00 %
12.07.2015 16:55 30,0 C 31 % 1011,3 hPa 0,0 l/m 7,9 km/h (2 Bft) W-SW 256 5 min 0,000 mm 2,0 UV-I 632 W/m 11,0 C 29,9 C 11,9 km/h (2 Bft) 0,00 %
12.07.2015 17:00 29,8 C 30 % 1011,4 hPa 0,0 l/m 3,2 km/h (1 Bft) SW 233 5 min 0,000 mm 2,0 UV-I 602 W/m 10,3 C 29,8 C 4,0 km/h (1 Bft) 0,00 %
12.07.2015 17:05 29,6 C 30 % 1011,3 hPa 0,0 l/m 0,0 km/h (0 Bft) N-NO 24 5 min 0,000 mm 2,0 UV-I 716 W/m 10,2 C 29,6 C 0,0 km/h (0 Bft) 0,00 %
12.07.2015 17:10 29,2 C 32 % 1011,4 hPa 0,0 l/m 6,5 km/h (2 Bft) NO 40 5 min 0,000 mm 2,0 UV-I 752 W/m 10,8 C 29,2 C 7,9 km/h (2 Bft) 0,00 %
12.07.2015 17:15 28,7 C 32 % 1011,5 hPa 0,0 l/m 0,7 km/h (0 Bft) O-NO 57 5 min 0,000 mm 2,0 UV-I 730 W/m 10,4 C 28,7 C 4,0 km/h (1 Bft) 0,00 %
12.07.2015 17:20 28,5 C 32 % 1011,5 hPa 0,0 l/m 0,0 km/h (0 Bft) NO 49 5 min 0,000 mm 2,0 UV-I 698 W/m 10,2 C 28,5 C 0,0 km/h (0 Bft) 0,00 %
12.07.2015 17:25 28,5 C 33 % 1011,4 hPa 0,0 l/m 2,2 km/h (1 Bft) W 267 5 min 0,000 mm 1,0 UV-I 679 W/m 10,6 C 28,5 C 4,0 km/h (1 Bft) 0,00 %
12.07.2015 17:30 28,5 C 31 % 1011,3 hPa 0,0 l/m 0,0 km/h (0 Bft) NO 36 5 min 0,000 mm 2,0 UV-I 498 W/m 9,7 C 28,5 C 0,0 km/h (0 Bft) 0,00 %
12.07.2015 17:35 28,8 C 32 % 1011,2 hPa 0,0 l/m 0,7 km/h (0 Bft) O-NO 75 5 min 0,000 mm 2,0 UV-I 460 W/m 10,4 C 28,8 C 4,0 km/h (1 Bft) 0,00 %
12.07.2015 17:40 29,2 C 30 % 1011,2 hPa 0,0 l/m 2,2 km/h (1 Bft) W-SW 258 5 min 0,000 mm 2,0 UV-I 444 W/m 9,8 C 29,2 C 7,9 km/h (2 Bft) 0,00 %
12.07.2015 17:45 29,6 C 30 % 1010,9 hPa 0,0 l/m 1,4 km/h (1 Bft) W-NW 283 5 min 0,000 mm 1,0 UV-I 366 W/m 10,2 C 29,6 C 4,0 km/h (1 Bft) 0,00 %
12.07.2015 17:50 29,6 C 30 % 1011,0 hPa 0,0 l/m 2,9 km/h (1 Bft) O 100 5 min 0,000 mm 1,0 UV-I 305 W/m 10,2 C 29,6 C 7,9 km/h (2 Bft) 0,00 %
12.07.2015 17:55 29,4 C 31 % 1010,9 hPa 0,0 l/m 0,4 km/h (0 Bft) NW 305 5 min 0,000 mm 1,0 UV-I 433 W/m 10,5 C 29,4 C 4,0 km/h (1 Bft) 0,00 %
12.07.2015 18:00 29,3 C 30 % 1010,9 hPa 0,0 l/m 4,0 km/h (1 Bft) SW 233 5 min 0,000 mm 1,0 UV-I 420 W/m 9,9 C 29,3 C 7,9 km/h (2 Bft) 0,00 %
12.07.2015 18:05 29,3 C 30 % 1010,9 hPa 0,0 l/m 0,0 km/h (0 Bft) N-NO 18 5 min 0,000 mm 1,0 UV-I 337 W/m 9,9 C 29,3 C 0,0 km/h (0 Bft) 0,00 %
12.07.2015 18:10 29,4 C 30 % 1010,9 hPa 0,0 l/m 1,8 km/h (1 Bft) W-NW 291 5 min 0,000 mm 1,0 UV-I 413 W/m 10,0 C 29,4 C 4,0 km/h (1 Bft) 0,00 %
12.07.2015 18:15 29,4 C 29 % 1010,6 hPa 0,0 l/m 0,4 km/h (0 Bft) N-NW 328 5 min 0,000 mm 1,0 UV-I 369 W/m 9,5 C 29,4 C 4,0 km/h (1 Bft) 0,00 %
12.07.2015 18:20 29,3 C 30 % 1011,1 hPa 0,0 l/m 5,4 km/h (1 Bft) N 357 5 min 0,000 mm 1,0 UV-I 332 W/m 9,9 C 29,3 C 7,9 km/h (2 Bft) 0,00 %
12.07.2015 18:25 29,2 C 31 % 1011,0 hPa 0,0 l/m 0,4 km/h (0 Bft) SW 231 5 min 0,000 mm 1,0 UV-I 402 W/m 10,3 C 29,2 C 4,0 km/h (1 Bft) 0,00 %
12.07.2015 18:30 29,0 C 31 % 1010,9 hPa 0,0 l/m 5,4 km/h (1 Bft) W 278 5 min 0,000 mm 1,0 UV-I 391 W/m 10,1 C 29,0 C 7,9 km/h (2 Bft) 0,00 %
12.07.2015 18:35 28,9 C 32 % 1010,8 hPa 0,0 l/m 0,4 km/h (0 Bft) NO 36 5 min 0,000 mm 1,0 UV-I 243 W/m 10,5 C 28,9 C 4,0 km/h (1 Bft) 0,00 %
12.07.2015 18:40 28,6 C 32 % 1010,9 hPa 0,0 l/m 0,4 km/h (0 Bft) NO 47 0 min 0,000 mm 1,0 UV-I 187 W/m 10,3 C 28,6 C 4,0 km/h (1 Bft) 0,00 %
12.07.2015 18:45 28,6 C 33 % 1010,8 hPa 0,0 l/m 0,0 km/h (0 Bft) N-NO 29 0 min 0,000 mm 1,0 UV-I 153 W/m 10,7 C 28,6 C 0,0 km/h (0 Bft) 0,00 %
12.07.2015 18:50 28,5 C 33 % 1010,9 hPa 0,0 l/m 0,0 km/h (0 Bft) O-NO 64 0 min 0,000 mm 1,0 UV-I 125 W/m 10,6 C 28,5 C 0,0 km/h (0 Bft) 0,00 %
12.07.2015 18:55 28,3 C 33 % 1010,9 hPa 0,0 l/m 0,0 km/h (0 Bft) N-NO 27 0 min 0,000 mm 1,0 UV-I 101 W/m 10,5 C 28,3 C 0,0 km/h (0 Bft) 0,00 %
12.07.2015 19:00 28,2 C 34 % 1010,8 hPa 0,0 l/m 0,0 km/h (0 Bft) N 351 0 min 0,000 mm 1,0 UV-I 85 W/m 10,8 C 28,2 C 0,0 km/h (0 Bft) 0,00 %
12.07.2015 19:05 28,3 C 34 % 1010,8 hPa 0,0 l/m 0,0 km/h (0 Bft) NO 40 0 min 0,000 mm 1,0 UV-I 83 W/m 10,9 C 28,3 C 0,0 km/h (0 Bft) 0,00 %
12.07.2015 19:10 28,4 C 32 % 1010,9 hPa 0,0 l/m 0,0 km/h (0 Bft) N-NO 32 0 min 0,000 mm 1,0 UV-I 80 W/m 10,1 C 28,4 C 0,0 km/h (0 Bft) 0,00 %
12.07.2015 19:15 28,5 C 34 % 1010,8 hPa 0,0 l/m 3,2 km/h (1 Bft) W-NW 292 0 min 0,000 mm 1,0 UV-I 72 W/m 11,1 C 28,5 C 4,0 km/h (1 Bft) 0,00 %
12.07.2015 19:20 28,3 C 32 % 1010,7 hPa 0,0 l/m 0,7 km/h (0 Bft) W-NW 290 0 min 0,000 mm 1,0 UV-I 63 W/m 10,0 C 28,3 C 4,0 km/h (1 Bft) 0,00 %
12.07.2015 19:25 28,2 C 36 % 1010,8 hPa 0,0 l/m 0,0 km/h (0 Bft) NO 44 0 min 0,000 mm 1,0 UV-I 53 W/m 11,7 C 28,2 C 0,0 km/h (0 Bft) 0,00 %
12.07.2015 19:30 28,2 C 34 % 1010,7 hPa 0,0 l/m 0,0 km/h (0 Bft) NW 314 0 min 0,000 mm 1,0 UV-I 38 W/m 10,8 C 28,2 C 0,0 km/h (0 Bft) 0,00 %
12.07.2015 19:35 28,2 C 34 % 1010,8 hPa 0,0 l/m 0,0 km/h (0 Bft) NO 48 0 min 0,000 mm 1,0 UV-I 25 W/m 10,8 C 28,2 C 0,0 km/h (0 Bft) 0,00 %
12.07.2015 19:40 28,0 C 36 % 1010,8 hPa 0,0 l/m 0,0 km/h (0 Bft) NO 41 0 min 0,000 mm 1,0 UV-I 12 W/m 11,5 C 28,0 C 0,0 km/h (0 Bft) 0,00 %
12.07.2015 19:45 27,4 C 35 % 1010,9 hPa 0,0 l/m 1,4 km/h (1 Bft) W 259 0 min 0,000 mm 0,0 UV-I 5 W/m 10,6 C 27,4 C 4,0 km/h (1 Bft) 0,00 %
12.07.2015 19:50 26,8 C 36 % 1011,0 hPa 0,0 l/m 0,0 km/h (0 Bft) NO 37 0 min 0,000 mm 0,0 UV-I 1 W/m 10,5 C 26,8 C 0,0 km/h (0 Bft) 0,00 %
12.07.2015 19:55 26,4 C 38 % 1010,9 hPa 0,0 l/m 0,0 km/h (0 Bft) N-NW 338 0 min 0,000 mm 0,0 UV-I 2 W/m 10,9 C 26,4 C 0,0 km/h (0 Bft) 0,00 %
12.07.2015 20:00 26,1 C 40 % 1011,1 hPa 0,0 l/m 0,0 km/h (0 Bft) NO 47 0 min 0,000 mm 0,0 UV-I 2 W/m 11,4 C 26,1 C 0,0 km/h (0 Bft) 0,00 %
12.07.2015 20:05 25,8 C 40 % 1011,0 hPa 0,0 l/m 0,0 km/h (0 Bft) N-NO 18 0 min 0,000 mm 0,0 UV-I 2 W/m 11,2 C 25,8 C 0,0 km/h (0 Bft) 0,00 %
12.07.2015 20:10 25,5 C 40 % 1011,2 hPa 0,0 l/m 0,0 km/h (0 Bft) N-NO 19 0 min 0,000 mm 0,0 UV-I 2 W/m 10,9 C 25,5 C 0,0 km/h (0 Bft) 0,00 %
12.07.2015 20:15 25,3 C 40 % 1011,1 hPa 0,0 l/m 0,0 km/h (0 Bft) NO 48 0 min 0,000 mm 0,0 UV-I 2 W/m 10,7 C 25,3 C 0,0 km/h (0 Bft) 0,00 %
12.07.2015 20:20 25,1 C 41 % 1011,1 hPa 0,0 l/m 0,7 km/h (0 Bft) W-SW 256 0 min 0,000 mm 0,0 UV-I 2 W/m 10,9 C 25,1 C 4,0 km/h (1 Bft) 0,00 %
12.07.2015 20:25 25,0 C 42 % 1011,4 hPa 0,0 l/m 0,0 km/h (0 Bft) N-NO 26 0 min 0,000 mm 0,0 UV-I 4 W/m 11,2 C 25,0 C 0,0 km/h (0 Bft) 0,00 %
12.07.2015 20:30 24,9 C 42 % 1011,3 hPa 0,0 l/m 0,0 km/h (0 Bft) NO 43 0 min 0,000 mm 0,0 UV-I 0 W/m 11,1 C 24,9 C 0,0 km/h (0 Bft) 0,00 %
12.07.2015 20:35 24,6 C 43 % 1011,4 hPa 0,0 l/m 0,0 km/h (0 Bft) N-NW 340 0 min 0,000 mm 0,0 UV-I 0 W/m 11,2 C 24,6 C 0,0 km/h (0 Bft) 0,00 %
12.07.2015 20:40 24,4 C 45 % 1011,5 hPa 0,0 l/m 0,0 km/h (0 Bft) NO 36 0 min 0,000 mm 0,0 UV-I 0 W/m 11,7 C 24,4 C 0,0 km/h (0 Bft) 0,00 %
12.07.2015 20:45 24,1 C 47 % 1011,4 hPa 0,0 l/m 0,0 km/h (0 Bft) NO 42 0 min 0,000 mm 0,0 UV-I 0 W/m 12,1 C 24,1 C 0,0 km/h (0 Bft) 0,00 %
12.07.2015 20:50 23,7 C 48 % 1011,6 hPa 0,0 l/m 0,0 km/h (0 Bft) NO 54 0 min 0,000 mm 0,0 UV-I 0 W/m 12,0 C 23,7 C 0,0 km/h (0 Bft) 0,00 %
12.07.2015 20:55 23,3 C 50 % 1011,8 hPa 0,0 l/m 0,0 km/h (0 Bft) NO 54 0 min 0,000 mm 0,0 UV-I 0 W/m 12,3 C 23,3 C 0,0 km/h (0 Bft) 0,00 %
12.07.2015 21:00 23,0 C 51 % 1011,9 hPa 0,0 l/m 0,0 km/h (0 Bft) NO 38 0 min 0,000 mm 0,0 UV-I 0 W/m 12,3 C 23,0 C 0,0 km/h (0 Bft) 0,00 %
12.07.2015 21:05 22,8 C 51 % 1011,9 hPa 0,0 l/m 0,0 km/h (0 Bft) NO 43 0 min 0,000 mm 0,0 UV-I 0 W/m 12,1 C 22,8 C 0,0 km/h (0 Bft) 0,00 %
12.07.2015 21:10 22,7 C 51 % 1011,9 hPa 0,0 l/m 0,0 km/h (0 Bft) NO 52 0 min 0,000 mm 0,0 UV-I 0 W/m 12,0 C 22,7 C 0,0 km/h (0 Bft) 0,00 %
12.07.2015 21:15 22,5 C 52 % 1012,1 hPa 0,0 l/m 0,0 km/h (0 Bft) NO 50 0 min 0,000 mm 0,0 UV-I 0 W/m 12,1 C 22,5 C 0,0 km/h (0 Bft) 0,00 %
12.07.2015 21:20 22,3 C 53 % 1012,2 hPa 0,0 l/m 0,0 km/h (0 Bft) NO 47 0 min 0,000 mm 0,0 UV-I 0 W/m 12,2 C 22,3 C 0,0 km/h (0 Bft) 0,00 %
12.07.2015 21:25 22,1 C 54 % 1012,1 hPa 0,0 l/m 0,0 km/h (0 Bft) NO 45 0 min 0,000 mm 0,0 UV-I 0 W/m 12,3 C 22,1 C 0,0 km/h (0 Bft) 0,00 %
12.07.2015 21:30 21,9 C 54 % 1012,2 hPa 0,0 l/m 0,0 km/h (0 Bft) N-NW 336 0 min 0,000 mm 0,0 UV-I 0 W/m 12,2 C 21,9 C 0,0 km/h (0 Bft) 0,00 %
12.07.2015 21:35 21,7 C 54 % 1012,4 hPa 0,0 l/m 0,0 km/h (0 Bft) N 354 0 min 0,000 mm 0,0 UV-I 0 W/m 12,0 C 21,7 C 0,0 km/h (0 Bft) 0,00 %
12.07.2015 21:40 21,6 C 55 % 1012,6 hPa 0,0 l/m 0,0 km/h (0 Bft) N 7 0 min 0,000 mm 0,0 UV-I 0 W/m 12,2 C 21,6 C 0,0 km/h (0 Bft) 0,00 %
12.07.2015 21:45 21,5 C 56 % 1012,7 hPa 0,0 l/m 0,0 km/h (0 Bft) N-NO 21 0 min 0,000 mm 0,0 UV-I 0 W/m 12,3 C 21,5 C 0,0 km/h (0 Bft) 0,00 %
12.07.2015 21:50 21,4 C 55 % 1012,7 hPa 0,0 l/m 0,4 km/h (0 Bft) O-SO 107 0 min 0,000 mm 0,0 UV-I 0 W/m 12,0 C 21,4 C 4,0 km/h (1 Bft) 0,00 %
12.07.2015 21:55 21,4 C 55 % 1012,7 hPa 0,0 l/m 0,0 km/h (0 Bft) N-NO 27 0 min 0,000 mm 0,0 UV-I 0 W/m 12,0 C 21,4 C 0,0 km/h (0 Bft) 0,00 %
12.07.2015 22:00 21,4 C 54 % 1012,7 hPa 0,0 l/m 0,4 km/h (0 Bft) NW 316 0 min 0,000 mm 0,0 UV-I 0 W/m 11,7 C 21,4 C 4,0 km/h (1 Bft) 0,00 %
12.07.2015 22:05 21,4 C 53 % 1012,7 hPa 0,0 l/m 0,0 km/h (0 Bft) NO 36 0 min 0,000 mm 0,0 UV-I 0 W/m 11,4 C 21,4 C 0,0 km/h (0 Bft) 0,00 %
12.07.2015 22:10 21,4 C 52 % 1012,8 hPa 0,0 l/m 0,0 km/h (0 Bft) NW 309 0 min 0,000 mm 0,0 UV-I 0 W/m 11,1 C 21,4 C 0,0 km/h (0 Bft) 0,00 %
12.07.2015 22:15 21,4 C 52 % 1012,8 hPa 0,0 l/m 0,0 km/h (0 Bft) N-NW 336 0 min 0,000 mm 0,0 UV-I 0 W/m 11,1 C 21,4 C 0,0 km/h (0 Bft) 0,00 %
12.07.2015 22:20 21,5 C 51 % 1012,8 hPa 0,0 l/m 0,0 km/h (0 Bft) N 352 0 min 0,000 mm 0,0 UV-I 0 W/m 10,9 C 21,5 C 0,0 km/h (0 Bft) 0,00 %
12.07.2015 22:25 21,5 C 51 % 1012,8 hPa 0,0 l/m 0,0 km/h (0 Bft) N-NW 339 0 min 0,000 mm 0,0 UV-I 0 W/m 10,9 C 21,5 C 0,0 km/h (0 Bft) 0,00 %
12.07.2015 22:30 21,5 C 51 % 1012,8 hPa 0,0 l/m 0,0 km/h (0 Bft) O-NO 59 0 min 0,000 mm 0,0 UV-I 0 W/m 10,9 C 21,5 C 0,0 km/h (0 Bft) 0,00 %
12.07.2015 22:35 21,4 C 50 % 1013,0 hPa 0,0 l/m 0,0 km/h (0 Bft) N 354 0 min 0,000 mm 0,0 UV-I 0 W/m 10,5 C 21,4 C 0,0 km/h (0 Bft) 0,00 %
12.07.2015 22:40 21,3 C 51 % 1012,9 hPa 0,0 l/m 0,0 km/h (0 Bft) NO 45 0 min 0,000 mm 0,0 UV-I 0 W/m 10,7 C 21,3 C 0,0 km/h (0 Bft) 0,00 %
12.07.2015 22:45 21,3 C 51 % 1012,9 hPa 0,0 l/m 0,0 km/h (0 Bft) NO 42 0 min 0,000 mm 0,0 UV-I 0 W/m 10,7 C 21,3 C 0,0 km/h (0 Bft) 0,00 %
12.07.2015 22:50 21,2 C 52 % 1013,2 hPa 0,0 l/m 1,8 km/h (1 Bft) W 276 0 min 0,000 mm 0,0 UV-I 0 W/m 10,9 C 21,2 C 4,0 km/h (1 Bft) 0,00 %
12.07.2015 22:55 21,1 C 52 % 1013,3 hPa 0,0 l/m 0,0 km/h (0 Bft) NO 42 0 min 0,000 mm 0,0 UV-I 0 W/m 10,9 C 21,1 C 0,0 km/h (0 Bft) 0,00 %
12.07.2015 23:00 21,0 C 52 % 1013,2 hPa 0,0 l/m 0,0 km/h (0 Bft) N-NO 29 0 min 0,000 mm 0,0 UV-I 0 W/m 10,8 C 21,0 C 0,0 km/h (0 Bft) 0,00 %
12.07.2015 23:05 21,0 C 53 % 1013,2 hPa 0,0 l/m 0,0 km/h (0 Bft) N-NW 345 0 min 0,000 mm 0,0 UV-I 0 W/m 11,0 C 21,0 C 0,0 km/h (0 Bft) 0,00 %
12.07.2015 23:10 20,8 C 53 % 1013,2 hPa 0,0 l/m 0,0 km/h (0 Bft) NO 37 0 min 0,000 mm 0,0 UV-I 0 W/m 10,9 C 20,8 C 0,0 km/h (0 Bft) 0,00 %
12.07.2015 23:15 20,7 C 54 % 1013,2 hPa 0,0 l/m 0,0 km/h (0 Bft) NO 47 0 min 0,000 mm 0,0 UV-I 0 W/m 11,1 C 20,7 C 0,0 km/h (0 Bft) 0,00 %
12.07.2015 23:20 20,6 C 56 % 1013,5 hPa 0,0 l/m 0,0 km/h (0 Bft) NO 41 0 min 0,000 mm 0,0 UV-I 0 W/m 11,5 C 20,6 C 0,0 km/h (0 Bft) 0,00 %
12.07.2015 23:25 20,5 C 57 % 1013,4 hPa 0,0 l/m 0,0 km/h (0 Bft) NO 43 0 min 0,000 mm 0,0 UV-I 0 W/m 11,7 C 20,5 C 0,0 km/h (0 Bft) 0,00 %
12.07.2015 23:30 20,4 C 56 % 1013,4 hPa 0,0 l/m 0,0 km/h (0 Bft) NO 41 0 min 0,000 mm 0,0 UV-I 0 W/m 11,3 C 20,4 C 0,0 km/h (0 Bft) 0,00 %
12.07.2015 23:35 20,3 C 56 % 1013,3 hPa 0,0 l/m 0,0 km/h (0 Bft) NO 38 0 min 0,000 mm 0,0 UV-I 0 W/m 11,2 C 20,3 C 0,0 km/h (0 Bft) 0,00 %
12.07.2015 23:40 20,3 C 55 % 1013,2 hPa 0,0 l/m 0,0 km/h (0 Bft) N-NW 348 0 min 0,000 mm 0,0 UV-I 0 W/m 11,0 C 20,3 C 0,0 km/h (0 Bft) 0,00 %
12.07.2015 23:45 20,4 C 55 % 1013,3 hPa 0,0 l/m 0,7 km/h (0 Bft) O 94 0 min 0,000 mm 0,0 UV-I 0 W/m 11,1 C 20,4 C 4,0 km/h (1 Bft) 0,00 %
12.07.2015 23:50 20,4 C 55 % 1013,3 hPa 0,0 l/m 0,0 km/h (0 Bft) N 9 0 min 0,000 mm 0,0 UV-I 0 W/m 11,1 C 20,4 C 0,0 km/h (0 Bft) 0,00 %
12.07.2015 23:55 20,3 C 55 % 1013,4 hPa 0,0 l/m 2,9 km/h (1 Bft) NW 322 0 min 0,000 mm 0,0 UV-I 0 W/m 11,0 C 20,3 C 4,0 km/h (1 Bft) 0,00 %
_ Min-Zeit 04:45 15:05 18:15 - 00:00 - - - - - - 15:05 04:45 00:00 00:00
Minimum _ 15,0 C 28 % 1010,6 hPa - 0,0 km/h (0 Bft) - - - - - - 9,4 C 15,0 C 0,0 km/h (0 Bft) 0,00 %
_ Max-Zeit 16:50 04:50 05:45 00:00 12:30 - - 06:25 00:00 13:00 13:15 07:25 16:50 13:35 00:00
Maximum _ 30,1 C 86 % 1016,1 hPa 0,0 l/m 14,0 km/h
W (3 Bft)
- - 5 min 0,000 mm 6,0 UV-I 1011 W/m 14,4 C 30,1 C 24,1 km/h
W-NW (4 Bft)
0,00 %
Durchschnitt _ 23,2 C 53 % 1013,8 hPa #0,0 l/m 1,4 km/h (1 Bft) W - #11:30 h #0,000 mm 2,7 UV-I 504 W/m 11,8 C 23,2 C 2,8 km/h (1 Bft) 0,00 %